This demonstration page uses our WeatherBlox Daily Observations layout. Learn more.

Hourly Observations for August 8, 2016

Temp ( °F °C ) Dew Point ( °F °C ) Humidity (%) Winds ( mph kmh ) Pressure ( in mb ) Visibility ( mi km ) Precip ( " mm )
12:15 am 00:15 Cloudy 68 20 63 17.1 83 83 SE 8 13 29.97 1015 10 16.09344 0 0
12:35 am 00:35 Cloudy 68 20 63 17 83 83 SE 7 11 29.97 1015 10 16.09344 0 0
12:55 am 00:55 Cloudy 67 19.7 63 17 85 85 SE 6 9 29.97 1015 10 16.09344 0 0
1:15 am 01:15 Cloudy 67 19.7 63 17 85 85 ESE 6 9 29.97 1015 10 16.09344 0 0
1:35 am 01:35 Cloudy 67 19.6 63 17 85 85 ESE 6 9 29.97 1015 10 16.09344 0 0
1:55 am 01:55 Cloudy 67 19.6 63 17 85 85 SE 6 9 29.97 1015 10 16.09344 0 0
2:15 am 02:15 Cloudy 67 19.6 63 17 85 85 ESE 5 7 29.97 1015 10 16.09344 0 0
2:35 am 02:35 Cloudy 67 19.5 63 17.1 86 86 ESE 6 9 29.97 1015 10 16.09344 0 0
2:55 am 02:55 Cloudy 67 19.5 63 17.2 87 87 ESE 6 9 29.97 1015 10 16.09344 0 0
3:15 am 03:15 Cloudy 67 19.3 63 17.3 88 88 SE 8 13 29.97 1015 10 16.09344 0 0
3:35 am 03:35 Cloudy 67 19.3 63 17.3 88 88 ESE 9 15 29.97 1015 10 16.09344 0 0
3:55 am 03:55 Cloudy 67 19.2 63 17.2 88 88 SE 8 13 29.97 1015 10 16.09344 0 0
4:15 am 04:15 Cloudy 67 19.2 63 17.3 89 89 SE 5 7 29.97 1015 10 16.09344 0 0
4:35 am 04:35 Cloudy 66 19.1 63 17.2 89 89 SE 5 7 29.97 1015 10 16.09344 0 0
4:55 am 04:55 Cloudy 66 19.1 63 17.1 88 88 SE 6 9 29.97 1015 10 16.09344 0 0
5:15 am 05:15 Cloudy 66 19 63 17 88 88 SE 6 9 29.94 1014 10 16.09344 0 0
5:35 am 05:35 Cloudy 66 19 63 17 88 88 SE 6 9 29.97 1015 10 16.09344 0 0
5:55 am 05:55 Cloudy 66 19 63 17 88 88 SE 8 13 29.97 1015 10 16.09344 0 0
6:15 am 06:15 Cloudy 66 19 63 17 88 88 SE 7 11 29.97 1015 10 16.09344 0 0
6:35 am 06:35 Cloudy 66 19 63 17 88 88 ESE 5 7 29.97 1015 10 16.09344 0 0
6:55 am 06:55 Cloudy 66 19 63 17 88 88 SE 5 7 29.97 1015 10 16.09344 0 0
7:15 am 07:15 Cloudy 66 18.9 62 16.8 88 88 SE 7 11 29.97 1015 10 16.09344 0 0
7:35 am 07:35 Cloudy 66 19.1 63 17.1 88 88 E 5 7 29.97 1015 10 16.09344 0 0
7:55 am 07:55 Cloudy 66 19 63 17.1 89 89 ESE 5 7 29.97 1015 10 16.09344 0 0
8:15 am 08:15 Cloudy 67 19.2 63 17 87 87 SE 7 11 29.97 1015 10 16.09344 0 0
8:35 am 08:35 Cloudy 67 19.4 63 17 86 86 SE 7 11 29.97 1015 10 16.09344 0 0
8:55 am 08:55 Cloudy 67 19.6 63 17 85 85 SE 6 9 29.97 1015 10 16.09344 0 0
9:15 am 09:15 Cloudy 67 19.7 63 17 85 85 SSE 7 11 29.97 1015 10 16.09344 0 0
9:35 am 09:35 Cloudy 69 20.4 63 17.1 81 81 S 7 11 29.94 1014 10 16.09344 0 0
9:55 am 09:55 Mostly Cloudy 69 20.8 63 17.1 79 79 S 8 13 29.94 1014 10 16.09344 0 0
10:15 am 10:15 Mostly Cloudy 73 22.5 64 17.7 74 74 S 12 19 29.91 1013 10 16.09344 0 0
10:35 am 10:35 Mostly Cloudy 72 22.4 64 17.5 74 74 S 8 13 29.91 1013 10 16.09344 0 0
10:55 am 10:55 Cloudy 72 22.4 63 17.2 73 73 S 3 6 29.91 1013 10 16.09344 0 0
11:15 am 11:15 Cloudy 73 22.7 63 17.2 71 71 SSW 5 7 29.91 1013 10 16.09344 0 0
11:35 am 11:35 Cloudy 74 23.5 64 17.9 71 71 SW 8 13 29.88 1012 10 16.09344 0 0
11:55 am 11:55 Mostly Cloudy 76 24.5 65 18.1 68 68 S 9 15 29.88 1012 10 16.09344 0 0
12:15 pm 12:15 Mostly Cloudy 76 24.3 65 18.5 70 70 SSW 7 11 29.88 1012 10 16.09344 0 0
12:35 pm 12:35 Partly Cloudy 78 25.7 66 18.7 65 65 S 8 13 29.88 1012 10 16.09344 0 0
12:55 pm 12:55 Partly Cloudy 79 26 66 18.8 65 65 SSW 9 15 29.85 1011 10 16.09344 0 0
1:15 pm 13:15 Mostly Cloudy 79 26.3 66 19 64 64 SW 9 15 29.85 1011 10 16.09344 0 0
1:35 pm 13:35 Mostly Cloudy 82 27.6 66 18.7 58 58 S 14 22 29.83 1010 10 16.09344 0 0
1:55 pm 13:55 Mostly Cloudy 81 27 65 18.6 60 60 SSW 10 17 29.83 1010 10 16.09344 0 0
2:15 pm 14:15 Mostly Cloudy 81 27.4 66 18.7 59 59 SSW 10 17 29.8 1009 10 16.09344 0 0
2:35 pm 14:35 Mostly Cloudy 83 28.2 66 19 57 57 S 13 20 29.8 1009 10 16.09344 0 0
2:55 pm 14:55 Partly Cloudy 85 29.2 67 19.2 55 55 S 14 22 29.8 1009 10 16.09344 0 0
3:15 pm 15:15 Partly Cloudy 84 29.1 67 19.3 56 56 S 14 22 29.8 1009 10 16.09344 0 0
3:35 pm 15:35 Mostly Cloudy 83 28.4 67 19.3 58 58 S 15 24 29.8 1009 10 16.09344 0 0
3:55 pm 15:55 Mostly Cloudy 83 28.5 66 18.8 56 56 SSE 12 19 29.77 1008 10 16.09344 0 0
4:15 pm 16:15 Partly Cloudy 84 29 67 19.3 56 56 S 9 15 29.77 1008 10 16.09344 0 0
4:35 pm 16:35 Mostly Cloudy 83 28.1 67 19.3 59 59 SSE 13 20 29.77 1008 10 16.09344 0 0
4:55 pm 16:55 Mostly Cloudy 83 28.5 67 19.5 58 58 SSE 13 20 29.77 1008 10 16.09344 0 0
5:15 pm 17:15 Mostly Cloudy 83 28.4 67 19.6 59 59 SSE 12 19 29.77 1008 10 16.09344 0 0
5:35 pm 17:35 Mostly Cloudy 83 28.5 68 19.8 59 59 SE 14 22 29.77 1008 10 16.09344 0 0
5:55 pm 17:55 Cloudy 82 27.8 68 19.8 62 62 SE 9 15 29.77 1008 10 16.09344 0 0
6:15 pm 18:15 Mostly Cloudy 82 27.6 68 20 63 63 SE 13 20 29.77 1008 10 16.09344 0 0
6:35 pm 18:35 Mostly Cloudy 82 27.5 68 20.1 64 64 SSE 13 20 29.77 1008 10 16.09344 0 0
6:55 pm 18:55 Mostly Cloudy 80 26.8 68 20.2 67 67 SSE 8 13 29.77 1008 10 16.09344 0 0
7:15 pm 19:15 Cloudy 81 27 69 20.5 68 68 SE 12 19 29.77 1008 10 16.09344 0 0
7:35 pm 19:35 Partly Cloudy 80 26.4 68 19.9 68 68 SSE 10 17 29.77 1008 10 16.09344 0 0
7:55 pm 19:55 Sunny 78 25.8 68 20 70 70 SSE 10 17 29.8 1009 10 16.09344 0 0
8:15 pm 20:15 Sunny 77 25.1 68 20.1 74 74 SSE 10 17 29.8 1009 10 16.09344 0 0
8:35 pm 20:35 Sunny 76 24.5 68 20 76 76 SSE 8 13 29.8 1009 10 16.09344 0 0
8:55 pm 20:55 Clear 74 23.5 68 20 81 81 SSE 8 13 29.8 1009 10 16.09344 0 0
9:15 pm 21:15 Clear 73 22.8 68 20 84 84 SE 7 11 29.8 1009 10 16.09344 0 0
9:35 pm 21:35 Clear 73 22.8 68 19.8 83 83 SSE 7 11 29.8 1009 10 16.09344 0 0
9:55 pm 21:55 Clear 73 22.5 68 19.8 85 85 SSE 7 11 29.85 1011 10 16.09344 0 0
10:15 pm 22:15 Clear 71 21.8 67 19.7 88 88 S 7 11 29.85 1011 10 16.09344 0 0
10:35 pm 22:35 Clear 72 22 68 20 88 88 SSE 9 15 29.85 1011 10 16.09344 0 0
10:55 pm 22:55 Clear 72 22 68 20 88 88 S 8 13 29.85 1011 10 16.09344 0 0
11:15 pm 23:15 Clear 71 21.7 68 20 90 90 SSE 10 17 29.83 1010 10 16.09344 0 0
11:35 pm 23:35 Clear 71 21.6 68 20 91 91 S 9 15 29.85 1011 10 16.09344 0 0
11:55 pm 23:55 Clear 71 21.6 68 19.9 90 90 S 9 15 29.85 1011 10 16.09344 0 0

Powered by AerisWeather